Погода в Крынице

Польша     49°24′47″N   20°57′14″E
темп.,
°C
ветер,
м/с
пор.,
м/с
влажн.,
%
обл.,
%
осадки,
мм/ч
давл.,
гПа
погр.,
м
4 марта, чт
чт401:00+2ююз229022 0.0 102334
04:00+1ю238889 0.0 102036
07:00+1ю337690 0.0 101960
10:00+8ююз245433 0.0 1017378
13:00+11зсз364729 0.0 10151345
16:00+9ссв1270100 0.0 1014139
19:00+6юз1291100 1.4 1013108
22:00+5ююз1195100 0.8 101339
5 марта, пт
пт501:00+4с1298100 2.6 1013159
04:00+2с3598100 1.7 1012313
07:000ссз3697100 4.3 1013435
10:00−1с4796100 1.3 1016519
13:00−1с5893100 2.0 1017665
16:00−2с5888100 0.6 1019884
19:00−4с3987100 0.9 1023491
22:00−6сз249133 0.1 1025107
6 марта, сб
сб601:00−5зсз258744 0.1 1027234
04:00−5сз288992 0.1 1028567
07:00−4сз388896 0.4 1030655
10:00−2ссз476989 0.3 10311264
13:00−1сз465963 0.5 10311557
16:00−2сз356159 0.0 10311193
19:00−5з117930 0.0 103221
22:00−5ююз22790 0.0 103228
7 марта, вс
вс701:00−5ююз22800 0.0 103042
04:00−6ююз22810 0.0 102835
07:00−5ююз22790 0.0 102788
10:00+1зюз26450 0.0 1025830
13:00+4з25410 0.0 10231210
16:00+3зсз26520 0.0 1020704
19:00−2ююз11670 0.0 102021
22:00−3ююз126743 0.0 101922
8 марта, пн
пн801:00−3ююз127122 0.0 101821
04:00−4з12740 0.0 101627
07:00−4зюз28796 0.0 1017352
10:000зсз367898 0.1 1017692
13:000сз378796 0.6 1017656
16:00−1ссз5987100 0.8 10181006
19:00−4ссз3977100 1.2 1021592
22:00−5с489457 0.4 1024747